Location: Peebles
(55.6412°N, 3.1714°W)
Time: 22:24:49
(UTC+01:00)

CENTAUR R/B - Pass Details

Date: 26 January 2022
Orbit: 716 x 1471 km, 63.4° (Epoch: 08 May)

Event Time Altitude Azimuth Distance (km) Brightness Sun altitude
Rises 22:35:03 0° 308° (NW) 4,014 6.4 -47.5°
Reaches altitude 10° 22:37:35 10° 308° (NW) 3,149 5.7 -47.7°
Enters shadow 22:40:29 27° 307° (NW) 2,231 4.6 -47.9°
